Wadena, MN

2:05 AM CDT on June 29, 2017 (GMT -0500)
Wadena Municipal

Weather History for KADC - May, 2013

Change the Weather History Date:

Monday, May 27, 2013

  Actual Average Record
Temperature  
Mean Temperature 56 °F -  
Max Temperature 60 °F 69 °F 95 °F (1969)
Min Temperature 51 °F 47 °F 31 °F (1947)
Degree Days  
Heating Degree Days 10    
Growing Degree Days 6 (Base 50)    
Moisture  
Dew Point 46 °F    
Average Humidity 71    
Maximum Humidity 82    
Minimum Humidity 62    
Precipitation  
Precipitation 0.00 in - - ()
Sea Level Pressure  
Sea Level Pressure 29.92 in    
Wind  
Wind Speed 11 mph (ESE)    
Max Wind Speed 18 mph    
Max Gust Speed 21 mph    
Visibility 10 miles    
Events      
Averages and records for this station are not official NWS values.
T = Trace of Precipitation, MM = Missing Value Source: NWS Daily Summary

Daily Weather History Graph

Daily Weather History Graph

Search for Another Location

Airport or City:

Trip Planner

Search our weather history database for the weather conditions in past years. The results will help you decide how hot, cold, wet, or windy it might be!

Date:

Astronomy

May. 27, 2013 Rise Set
Actual Time 5:35 AM CDT 9:01 PM CDT
Civil Twilight 4:57 AM CDT 9:38 PM CDT
Nautical Twilight 4:08 AM CDT 10:28 PM CDT
Astronomical Twilight 3:05 AM CDT 11:32 PM CDT
Moon 11:36 PM CDT (5/27) 8:16 AM CDT (5/27)
Length of Visible Light 16h 41m
Length of Day
15h 26m
Waning Gibbous, 91% of the Moon is Illuminated
May 27
Waning Gibbous
May 31
Last Quarter
Jun 8
New
Jun 16
First Quarter
Jun 23
Full

Hourly Weather History & Observations

Time (CDT) Temp. Dew Point Humidity Pressure Visibility Wind Dir Wind Speed Gust Speed Precip Events Conditions
12:15 AM 53.6 °F 41.0 °F 62% 30.03 in 10.0 mi SE 15.0 mph - N/A   Overcast
12:34 AM 53.6 °F 41.0 °F 62% 30.04 in 10.0 mi SE 12.7 mph - N/A   Overcast
12:53 AM 53.6 °F 41.0 °F 62% 30.05 in 10.0 mi SE 12.7 mph 19.6 mph N/A   Overcast
1:15 AM 53.6 °F 41.0 °F 62% 30.03 in 10.0 mi SE 12.7 mph - N/A   Overcast
1:34 AM 53.6 °F 41.0 °F 62% 30.02 in 10.0 mi ESE 12.7 mph - N/A   Overcast
1:53 AM 53.6 °F 41.0 °F 62% 30.00 in 10.0 mi ESE 10.4 mph - N/A   Overcast
2:15 AM 53.6 °F 41.0 °F 62% 30.01 in 10.0 mi SE 11.5 mph - N/A   Overcast
2:35 AM 53.6 °F 41.0 °F 62% 30.02 in 10.0 mi SE 9.2 mph - N/A   Overcast
2:53 AM 53.6 °F 41.0 °F 62% 30.01 in 10.0 mi ESE 9.2 mph - N/A   Overcast
3:15 AM 53.6 °F 42.8 °F 67% 30.01 in 10.0 mi ESE 9.2 mph - N/A   Overcast
3:35 AM 53.6 °F 42.8 °F 67% 30.01 in 10.0 mi ESE 10.4 mph - N/A   Overcast
3:53 AM 53.6 °F 42.8 °F 67% 30.00 in 10.0 mi SE 8.1 mph - N/A   Overcast
4:14 AM 53.6 °F 42.8 °F 67% 29.99 in 10.0 mi ESE 8.1 mph - N/A   Overcast
4:35 AM 53.6 °F 44.6 °F 72% 29.98 in 10.0 mi SE 18.4 mph - N/A   Overcast
4:53 AM 53.6 °F 44.6 °F 72% 29.99 in 10.0 mi SE 10.4 mph - N/A   Overcast
5:14 AM 51.8 °F 44.6 °F 76% 29.99 in 10.0 mi ESE 9.2 mph - N/A   Overcast
5:35 AM 51.8 °F 44.6 °F 76% 30.00 in 10.0 mi ESE 6.9 mph - N/A   Overcast
5:52 AM 51.8 °F 44.6 °F 76% 29.99 in 10.0 mi ESE 10.4 mph - N/A   Overcast
6:15 AM 51.8 °F 42.8 °F 71% 29.99 in 10.0 mi East 5.8 mph - N/A   Overcast
6:35 AM 51.8 °F 42.8 °F 71% 29.99 in 10.0 mi East 5.8 mph - N/A   Overcast
6:53 AM 51.8 °F 42.8 °F 71% 29.97 in 10.0 mi ENE 6.9 mph - N/A   Overcast
7:15 AM 51.8 °F 41.0 °F 67% 29.97 in 10.0 mi ENE 6.9 mph - N/A   Overcast
7:35 AM 51.8 °F 41.0 °F 67% 29.97 in 10.0 mi East 9.2 mph - N/A   Overcast
7:52 AM 51.8 °F 42.8 °F 71% 29.97 in 10.0 mi East 11.5 mph - N/A   Overcast
8:15 AM 51.8 °F 42.8 °F 71% 29.96 in 10.0 mi East 12.7 mph - N/A   Overcast
8:35 AM 51.8 °F 42.8 °F 71% 29.96 in 10.0 mi East 9.2 mph - N/A   Overcast
8:53 AM 51.8 °F 42.8 °F 71% 29.95 in 10.0 mi East 11.5 mph - N/A   Overcast
9:14 AM 51.8 °F 42.8 °F 71% 29.94 in 10.0 mi East 10.4 mph 17.3 mph N/A   Overcast
9:35 AM 51.8 °F 42.8 °F 71% 29.94 in 10.0 mi East 12.7 mph 19.6 mph N/A   Overcast
9:53 AM 51.8 °F 44.6 °F 76% 29.95 in 10.0 mi ESE 13.8 mph - N/A   Overcast
10:15 AM 51.8 °F 44.6 °F 76% 29.96 in 10.0 mi SE 11.5 mph - N/A   Overcast
10:35 AM 51.8 °F 44.6 °F 76% 29.95 in 10.0 mi East 10.4 mph - N/A   Overcast
10:52 AM 53.6 °F 44.6 °F 72% 29.95 in 10.0 mi ESE 9.2 mph - N/A   Overcast
11:14 AM 53.6 °F 46.4 °F 77% 29.93 in 10.0 mi ESE 10.4 mph - N/A   Overcast
11:35 AM 55.4 °F 46.4 °F 72% 29.93 in 10.0 mi ESE 13.8 mph - N/A   Overcast
11:53 AM 57.2 °F 48.2 °F 72% 29.91 in 10.0 mi East 11.5 mph - N/A   Overcast
12:15 PM 57.2 °F 46.4 °F 67% 29.91 in 10.0 mi East 9.2 mph - N/A   Overcast
12:35 PM 57.2 °F 46.4 °F 67% 29.91 in 10.0 mi East 5.8 mph - N/A   Overcast
12:52 PM 59.0 °F 48.2 °F 67% 29.89 in 10.0 mi East 9.2 mph - N/A   Overcast
1:14 PM 59.0 °F 48.2 °F 67% 29.88 in 10.0 mi East 15.0 mph - N/A   Overcast
1:35 PM 59.0 °F 48.2 °F 67% 29.88 in 10.0 mi ESE 11.5 mph 19.6 mph N/A   Overcast
1:53 PM 60.8 °F 48.2 °F 63% 29.89 in 10.0 mi ESE 11.5 mph - N/A   Overcast
2:15 PM 60.8 °F 48.2 °F 63% 29.89 in 10.0 mi ESE 10.4 mph 20.7 mph N/A   Overcast
2:35 PM 60.8 °F 48.2 °F 63% 29.88 in 10.0 mi ESE 10.4 mph - N/A   Overcast
2:53 PM 60.8 °F 48.2 °F 63% 29.88 in 10.0 mi East 11.5 mph - N/A   Overcast
3:15 PM 60.8 °F 48.2 °F 63% 29.89 in 10.0 mi East 6.9 mph - N/A   Overcast
3:35 PM 60.8 °F 48.2 °F 63% 29.89 in 10.0 mi East 8.1 mph - N/A   Overcast
3:52 PM 60.8 °F 48.2 °F 63% 29.89 in 10.0 mi East 9.2 mph - N/A   Overcast
4:14 PM 60.8 °F 48.2 °F 63% 29.88 in 10.0 mi ESE 12.7 mph - N/A   Overcast
4:34 PM 60.8 °F 48.2 °F 63% 29.87 in 10.0 mi ESE 11.5 mph - N/A   Overcast
4:53 PM 60.8 °F 48.2 °F 63% 29.87 in 10.0 mi ESE 9.2 mph 16.1 mph N/A   Overcast
5:15 PM 60.8 °F 48.2 °F 63% 29.86 in 10.0 mi ESE 11.5 mph 19.6 mph N/A   Overcast
5:35 PM 59.0 °F 48.2 °F 67% 29.86 in 10.0 mi ESE 11.5 mph - N/A   Overcast
5:53 PM 57.2 °F 48.2 °F 72% 29.86 in 10.0 mi ESE 10.4 mph - N/A   Overcast
6:15 PM 57.2 °F 50.0 °F 77% 29.87 in 10.0 mi East 12.7 mph 17.3 mph N/A   Overcast
6:35 PM 57.2 °F 50.0 °F 77% 29.86 in 10.0 mi ESE 10.4 mph - N/A   Overcast
6:52 PM 57.2 °F 48.2 °F 72% 29.86 in 10.0 mi ESE 11.5 mph - N/A   Overcast
7:15 PM 57.2 °F 48.2 °F 72% 29.86 in 10.0 mi ESE 10.4 mph - N/A   Overcast
7:34 PM 57.2 °F 48.2 °F 72% 29.86 in 10.0 mi ESE 10.4 mph - N/A   Overcast
7:53 PM 55.4 °F 50.0 °F 82% 29.86 in 10.0 mi ESE 9.2 mph - N/A   Overcast
8:15 PM 55.4 °F 50.0 °F 82% 29.86 in 10.0 mi ESE 9.2 mph - N/A   Overcast
8:34 PM 55.4 °F 50.0 °F 82% 29.85 in 10.0 mi ESE 10.4 mph - N/A   Overcast
8:53 PM 55.4 °F 50.0 °F 82% 29.85 in 10.0 mi ESE 8.1 mph - N/A   Overcast
9:15 PM 55.4 °F 50.0 °F 82% 29.85 in 10.0 mi ESE 5.8 mph - N/A   Overcast
9:35 PM 55.4 °F 50.0 °F 82% 29.85 in 10.0 mi SE 10.4 mph - N/A   Overcast
9:52 PM 55.4 °F 50.0 °F 82% 29.85 in 10.0 mi SE 9.2 mph - N/A   Overcast
10:14 PM 55.4 °F 50.0 °F 82% 29.85 in 10.0 mi SE 8.1 mph - N/A   Overcast
10:35 PM 55.4 °F 50.0 °F 82% 29.84 in 10.0 mi SE 9.2 mph - N/A   Overcast
10:53 PM 55.4 °F 48.2 °F 77% 29.84 in 10.0 mi ESE 8.1 mph - N/A   Overcast
11:15 PM 55.4 °F 50.0 °F 82% 29.84 in 10.0 mi ESE 6.9 mph - N/A   Overcast
11:34 PM 55.4 °F 48.2 °F 77% 29.84 in 10.0 mi ESE 9.2 mph - N/A   Overcast
11:53 PM 55.4 °F 48.2 °F 77% 29.84 in 10.0 mi SE 11.5 mph - N/A   Overcast